[[{"header":{"parameterUnit":"m.s-1","parameterCategory":1,"la1":30.2991,"la2":30.254,"lo1":-89.0895,"lo2":-89.0444,"dy":0.0017,"dx":0.0017,"nx":28,"ny":28,"refTime":"2023-11-01T21:00:00:Z","depth":0,"parameterNumber":2,"parameterNumberName":"U-component_of_WINDS"},"data":[0,0,0,0,0,0,0,0,0,0,0,0,0,0,0,0,0,0,0,0,0,0,0,0,0,0,0,0,0,0,0,0,0,0,0,0,0,0,0,0,0,0,0,0,0,0,0,0,0,0,0,0,0,0,0,0,0,0,-1.0465,-1.0465,0,-1.0478,-1.0478,-1.0478,-1.0459,-1.0458,-1.0457,-1.0456,-1.0471,-1.0472,-1.0473,0,0,0,0,0,0,0,0,0,0,0,0,0,-1.0422,-1.0423,-1.0465,-1.0465,-1.0465,-1.0478,-1.0478,-1.0478,-1.0459,-1.0458,-1.0457,-1.0456,-1.047,-1.0472,-1.0473,0,0,0,0,0,0,0,0,0,0,0,0,0,-1.0438,-1.0423,-1.0464,-1.0457,-1.0456,-1.0478,-1.0478,-1.0478,-1.0459,-1.0458,-1.0457,-1.0456,-1.047,-1.0471,-1.0473,-1.0503,0,0,-1.0478,-1.0478,0,0,0,0,0,0,0,0,-1.0438,-1.044,-1.0458,-1.0457,-1.0457,-1.0465,-1.0468,-1.0487,-1.0459,-1.0458,-1.0456,-1.0455,-1.047,-1.0471,-1.0476,-1.0504,-1.0504,-1.0478,-1.0479,-1.0479,-1.048,0,0,0,0,0,0,0,-1.0436,-1.0439,-1.047,-1.0458,-1.0457,-1.0452,-1.0454,-1.0472,-1.047,-1.0458,-1.0456,-1.0458,-1.0469,-1.0475,-1.0476,-1.0505,-1.0478,-1.0479,-1.048,-1.0481,-1.0557,-1.0558,0,0,0,0,0,0,-1.0436,-1.0439,-1.0469,-1.047,-1.0444,-1.0454,-1.0455,-1.0464,-1.0469,-1.0469,-1.0459,-1.0457,-1.0473,-1.0475,-1.0477,-1.0512,-1.0479,-1.0481,-1.0482,-1.0556,-1.0557,-1.0559,0,0,0,0,0,0,-1.0435,-1.0439,-1.0469,-1.0454,-1.0457,-1.0456,-1.0465,-1.0464,-1.047,-1.047,-1.047,-1.0465,-1.0472,-1.0475,-1.0497,-1.0513,-1.0482,-1.0483,-1.0555,-1.0556,-1.0558,-1.0584,0,0,0,0,0,0,-1.0434,-1.0439,-1.0451,-1.0454,-1.0458,-1.0489,-1.0466,-1.0465,-1.0472,-1.047,-1.0476,-1.0475,-1.0471,-1.0494,-1.0498,-1.0514,-1.0484,-1.0553,-1.0555,-1.0557,-1.0582,-1.0586,-1.059,0,0,0,0,0,-1.0433,-1.0458,-1.0451,-1.0455,-1.0473,-1.049,-1.0492,-1.0486,-1.0474,-1.0485,-1.0485,-1.0475,-1.051,-1.0497,-1.0501,-1.0518,-1.0552,-1.0555,-1.0557,-1.058,-1.0585,-1.059,0,0,0,0,0,0,-1.0456,-1.0458,-1.0451,-1.0478,-1.0484,-1.0486,-1.0501,-1.0492,-1.0502,-1.05,-1.0492,-1.0494,-1.0517,-1.0519,-1.0505,-1.0547,-1.0529,-1.0532,-1.0545,-1.055,-1.0554,-1.0554,-1.0485,0,0,0,0,0,-1.0464,-1.0478,-1.0479,-1.0502,-1.0506,-1.0503,-1.051,-1.0505,-1.0511,-1.0513,-1.0515,-1.0521,-1.0533,-1.0542,-1.0553,-1.0581,-1.0582,-1.0595,-1.0599,-1.0603,-1.0606,-1.0621,-1.0627,-1.0567,-1.0567,-1.0567,0,0,-1.0482,-1.0484,-1.0494,-1.0507,-1.0511,-1.0525,-1.0505,-1.0521,-1.0531,-1.0516,-1.0537,-1.0538,-1.0544,-1.057,-1.0581,-1.0572,-1.0622,-1.0606,-1.0609,-1.061,-1.0624,-1.063,-1.0635,-1.0568,-1.0568,-1.0568,0,0,-1.0521,-1.0524,-1.0544,-1.0548,-1.0554,-1.0552,-1.0556,-1.056,-1.056,-1.0581,-1.0569,-1.0581,-1.0603,-1.0608,-1.0613,-1.0652,-1.0643,-1.0656,-1.0679,-1.0694,-1.0698,-1.0702,-1.0717,-1.0722,-1.0659,-1.0659,-1.0659,0,-1.0542,-1.0563,-1.0555,-1.0572,-1.0578,-1.0564,-1.0584,-1.0588,-1.0598,-1.0602,-1.0592,-1.0618,-1.0621,-1.0647,-1.0657,-1.0661,-1.0667,-1.0656,-1.0698,-1.0702,-1.0706,-1.072,-1.0725,-1.0661,-1.0661,-1.066,-1.066,0,-1.0588,-1.0603,-1.0618,-1.0627,-1.0635,-1.0653,-1.0648,-1.0657,-1.0651,-1.065,-1.0671,-1.0674,-1.0685,-1.0691,-1.0685,-1.0716,-1.071,-1.0699,-1.0682,-1.0713,-1.0726,-1.0731,-1.0663,-1.0662,-1.0662,-1.0662,0,0,-1.0644,-1.0648,-1.0654,-1.0657,-1.0662,-1.0673,-1.069,-1.0701,-1.0709,-1.0715,-1.073,-1.0748,-1.0737,-1.0743,-1.0738,-1.075,-1.0782,-1.0738,-1.0738,-1.0746,-1.0816,-1.0825,-1.0831,-1.0775,-1.0776,-1.0777,-1.0815,0,-1.0683,-1.0713,-1.0706,-1.0736,-1.0749,-1.0735,-1.075,-1.0754,-1.0753,-1.0764,-1.0763,-1.0775,-1.076,-1.0764,-1.0776,-1.0775,-1.0796,-1.0772,-1.0789,-1.0789,-1.0789,-1.0837,-1.0847,-1.0884,-1.082,-1.0821,-1.0822,0,-1.0733,-1.0741,-1.0772,-1.0774,-1.0779,-1.0793,-1.0802,-1.0813,-1.0817,-1.0815,-1.0821,-1.0813,-1.083,-1.0811,-1.0834,-1.0819,-1.0825,-1.0825,-1.0827,-1.0829,-1.0808,-1.0842,-1.0895,-1.0901,-1.0829,-1.0829,-1.0828,0,-1.0771,-1.079,-1.081,-1.0814,-1.0817,-1.0827,-1.0828,-1.0832,-1.0839,-1.0846,-1.085,-1.086,-1.0866,-1.0873,-1.0868,-1.0854,-1.0892,-1.0873,-1.0891,-1.0891,-1.0901,-1.09,-1.0957,-1.0903,-1.0903,-1.0903,-1.0903,0,-1.0817,-1.0836,-1.0828,-1.084,-1.0862,-1.0853,-1.0874,-1.0874,-1.0877,-1.089,-1.0878,-1.089,-1.0881,-1.0892,-1.0888,-1.0908,-1.091,-1.091,-1.0908,-1.0911,-1.0911,-1.0916,-1.0913,-1.0904,-1.0904,-1.0904,-1.0904,0,-1.0863,-1.0858,-1.088,-1.088,-1.0881,-1.0897,-1.0897,-1.0909,-1.0906,-1.0922,-1.0925,-1.0921,-1.0934,-1.0929,-1.0942,-1.0939,-1.0964,-1.096,-1.0963,-1.0962,-1.0981,-1.098,-1.1043,-1.1051,-1.0992,-1.0992,-1.0993,0,-1.0893,-1.0908,-1.0909,-1.0916,-1.0919,-1.0931,-1.0937,-1.0929,-1.0936,-1.0942,-1.0953,-1.0964,-1.0973,-1.0993,-1.0992,-1.1002,-1.0997,-1.1019,-1.0999,-1.1001,-1.0998,-1.0998,-1.0999,-1.1023,-1.1024,-1.1024,-1.1025,0,-1.0946,-1.0943,-1.0952,-1.0961,-1.0969,-1.0976,-1.0981,-1.0988,-1.098,-1.0989,-1.1001,-1.1008,-1.1021,-1.1032,-1.104,-1.1042,-1.1032,-1.1031,-1.1036,-1.1039,-1.1041,-1.1041,-1.0975,-1.103,-1.1029,-1.1029,-1.1029,-1.1029,-1.0986,-1.0998,-1.1001,-1.1012,-1.1015,-1.102,-1.1031,-1.1029,-1.1039,-1.1049,-1.1043,-1.1058,-1.1061,-1.1072,-1.1074,-1.1085,-1.1077,-1.1084,-1.1086,-1.1088,-1.1091,-1.1038,-1.1087,-1.1087,-1.1087,-1.1086,-1.1086,0,-1.1039,-1.1039,-1.105,-1.1057,-1.1066,-1.1055,-1.106,-1.1068,-1.1081,-1.1085,-1.1093,-1.1107,-1.1118,-1.1117,-1.1126,-1.1135,-1.1131,-1.1138,-1.1138,-1.1138,-1.1098,-1.1093,-1.1141,-1.1141,-1.1141,-1.1141,-1.1141,-1.1141,-1.1067,-1.1087,-1.1084,-1.1105,-1.1105,-1.1119,-1.1123,-1.1128,-1.1131,-1.1147,-1.1155,-1.1154,-1.1156,-1.1165,-1.1174,-1.1174,-1.1178,-1.1187,-1.1185,-1.1147,-1.1141,-1.1136,-1.1132,-1.1188,-1.1188,-1.1225,-1.1225,-1.1225]},{"header":{"parameterUnit":"m.s-1","parameterCategory":1,"la1":30.2991,"la2":30.254,"lo1":-89.0895,"lo2":-89.0444,"dy":0.0017,"dx":0.0017,"nx":28,"ny":28,"refTime":"2023-11-01T21:00:00:Z","depth":0,"parameterNumber":3,"parameterNumberName":"V-component_of_WINDS"},"data":[0,0,0,0,0,0,0,0,0,0,0,0,0,0,0,0,0,0,0,0,0,0,0,0,0,0,0,0,0,0,0,0,0,0,0,0,0,0,0,0,0,0,0,0,0,0,0,0,0,0,0,0,0,0,0,0,0,0,-7.5424,-7.5425,0,-7.5503,-7.5503,-7.5504,-7.5457,-7.5454,-7.5452,-7.545,-7.5524,-7.5528,-7.5532,0,0,0,0,0,0,0,0,0,0,0,0,0,-7.5229,-7.5233,-7.5424,-7.5425,-7.5426,-7.5502,-7.5503,-7.5504,-7.5457,-7.5454,-7.5452,-7.5449,-7.5523,-7.5527,-7.5532,0,0,0,0,0,0,0,0,0,0,0,0,0,-7.5311,-7.5234,-7.5424,-7.5412,-7.5412,-7.5502,-7.5503,-7.5505,-7.5458,-7.5454,-7.5451,-7.5448,-7.5521,-7.5527,-7.5533,-7.5638,0,0,-7.5552,-7.5554,0,0,0,0,0,0,0,0,-7.5307,-7.5318,-7.5413,-7.5413,-7.5413,-7.5467,-7.5462,-7.5549,-7.5459,-7.544,-7.545,-7.5446,-7.5507,-7.5514,-7.5536,-7.5641,-7.5645,-7.5552,-7.5556,-7.5558,-7.556,0,0,0,0,0,0,0,-7.5301,-7.5315,-7.5455,-7.5414,-7.5414,-7.5401,-7.5409,-7.5478,-7.5491,-7.5441,-7.5438,-7.5448,-7.5506,-7.553,-7.5537,-7.5646,-7.5552,-7.5557,-7.5561,-7.5563,-7.5842,-7.5846,0,0,0,0,0,0,-7.5297,-7.531,-7.5453,-7.5457,-7.5351,-7.5407,-7.5416,-7.5453,-7.549,-7.5493,-7.5451,-7.5446,-7.5522,-7.553,-7.554,-7.5666,-7.5558,-7.5564,-7.5568,-7.5838,-7.5843,-7.5847,0,0,0,0,0,0,-7.5293,-7.531,-7.5449,-7.5383,-7.54,-7.5414,-7.5456,-7.5456,-7.548,-7.5498,-7.5499,-7.5473,-7.5519,-7.5531,-7.5615,-7.5668,-7.5567,-7.5572,-7.5834,-7.584,-7.5845,-7.592,0,0,0,0,0,0,-7.5288,-7.5309,-7.535,-7.5384,-7.5404,-7.5525,-7.5459,-7.546,-7.5491,-7.5485,-7.5519,-7.5522,-7.5518,-7.5606,-7.5621,-7.5675,-7.5577,-7.5829,-7.5837,-7.5843,-7.5912,-7.5927,-7.594,0,0,0,0,0,-7.5281,-7.5366,-7.5352,-7.537,-7.5456,-7.5528,-7.5539,-7.5534,-7.5496,-7.5536,-7.5548,-7.5521,-7.566,-7.5615,-7.5631,-7.5688,-7.5826,-7.5835,-7.5843,-7.5906,-7.5924,-7.5939,0,0,0,0,0,0,-7.5335,-7.537,-7.5355,-7.5455,-7.5489,-7.552,-7.5571,-7.5553,-7.5597,-7.5589,-7.5579,-7.5587,-7.5675,-7.5689,-7.5638,-7.5792,-7.5737,-7.5749,-7.5779,-7.5796,-7.581,-7.5804,-7.5582,0,0,0,0,0,-7.5359,-7.5417,-7.5443,-7.5529,-7.5547,-7.5556,-7.5587,-7.5581,-7.5615,-7.5629,-7.5646,-7.5679,-7.573,-7.5764,-7.5812,-7.5914,-7.5921,-7.5961,-7.5975,-7.5986,-7.5996,-7.6053,-7.6071,-7.5875,-7.5875,-7.5875,0,0,-7.5408,-7.5435,-7.5471,-7.554,-7.5566,-7.5625,-7.5568,-7.5632,-7.5675,-7.5638,-7.5719,-7.5733,-7.5768,-7.5862,-7.5904,-7.5877,-7.6052,-7.5997,-7.6005,-7.601,-7.6063,-7.6082,-7.6098,-7.588,-7.5879,-7.5879,0,0,-7.5528,-7.5554,-7.5629,-7.5656,-7.5697,-7.5703,-7.5721,-7.5755,-7.5764,-7.5846,-7.5819,-7.5869,-7.5957,-7.5984,-7.6009,-7.6142,-7.6118,-7.6158,-7.6229,-7.6283,-7.6299,-7.6313,-7.6361,-7.6378,-7.6168,-7.6168,-7.6168,0,-7.5583,-7.5673,-7.5668,-7.5736,-7.5767,-7.5738,-7.5813,-7.5839,-7.5893,-7.5914,-7.5884,-7.5995,-7.6017,-7.6117,-7.615,-7.6171,-7.6191,-7.6154,-7.6297,-7.6311,-7.6324,-7.6369,-7.6387,-7.6173,-7.6172,-7.6172,-7.6171,0,-7.5739,-7.5802,-7.5857,-7.5913,-7.595,-7.602,-7.6026,-7.6063,-7.6054,-7.6063,-7.6147,-7.6172,-7.6226,-7.6249,-7.6239,-7.6348,-7.633,-7.6299,-7.6243,-7.6347,-7.639,-7.6407,-7.6179,-7.6178,-7.6176,-7.6175,0,0,-7.5894,-7.5949,-7.5969,-7.5995,-7.6039,-7.6086,-7.6155,-7.621,-7.6243,-7.628,-7.6338,-7.6414,-7.6386,-7.6415,-7.6408,-7.6456,-7.6561,-7.6419,-7.6419,-7.6445,-7.6683,-7.6707,-7.6728,-7.6545,-7.6549,-7.6551,-7.668,0,-7.6018,-7.6142,-7.6141,-7.6254,-7.6312,-7.6286,-7.6346,-7.6379,-7.639,-7.6439,-7.6449,-7.6504,-7.6462,-7.6479,-7.6526,-7.6538,-7.6609,-7.6529,-7.6598,-7.66,-7.6591,-7.675,-7.6775,-7.6896,-7.6697,-7.67,-7.6702,0,-7.6178,-7.6225,-7.6346,-7.6383,-7.6407,-7.6461,-7.6512,-7.656,-7.6596,-7.66,-7.6634,-7.662,-7.6689,-7.6632,-7.6726,-7.6672,-7.67,-7.6711,-7.6715,-7.6722,-7.6658,-7.6761,-7.6934,-7.6952,-7.6728,-7.6726,-7.6724,0,-7.6281,-7.6373,-7.6458,-7.648,-7.6525,-7.6564,-7.6584,-7.6618,-7.6651,-7.6695,-7.6716,-7.6767,-7.6794,-7.6833,-7.6833,-7.6791,-7.6929,-7.6871,-7.6934,-7.6934,-7.6964,-7.6962,-7.7145,-7.6982,-7.6981,-7.6981,-7.698,0,-7.6419,-7.6494,-7.6505,-7.6557,-7.664,-7.6638,-7.6719,-7.6735,-7.6765,-7.6819,-7.6798,-7.6849,-7.6845,-7.6896,-7.6896,-7.6975,-7.6987,-7.6992,-7.6991,-7.6994,-7.6994,-7.7013,-7.7004,-7.6986,-7.6985,-7.6984,-7.6983,0,-7.6548,-7.6558,-7.6649,-7.6685,-7.6696,-7.6756,-7.6786,-7.6834,-7.6844,-7.6912,-7.6928,-7.6942,-7.7,-7.7004,-7.7071,-7.7071,-7.7168,-7.7157,-7.7156,-7.7155,-7.7217,-7.7212,-7.7418,-7.7446,-7.7264,-7.7266,-7.7267,0,-7.6636,-7.6693,-7.6737,-7.6773,-7.6796,-7.6853,-7.6888,-7.6888,-7.6925,-7.6972,-7.7015,-7.7072,-7.7118,-7.7213,-7.7228,-7.7279,-7.727,-7.7339,-7.7278,-7.728,-7.7272,-7.7269,-7.7275,-7.7351,-7.7353,-7.7355,-7.7356,0,-7.6791,-7.6794,-7.6846,-7.6902,-7.6945,-7.6987,-7.7027,-7.7057,-7.7061,-7.7103,-7.7165,-7.7201,-7.7271,-7.7328,-7.7379,-7.7397,-7.7378,-7.7376,-7.7393,-7.7397,-7.7395,-7.7398,-7.719,-7.7371,-7.7369,-7.7368,-7.7367,-7.7367,-7.6902,-7.6953,-7.6992,-7.7052,-7.7082,-7.712,-7.7169,-7.7186,-7.7238,-7.7296,-7.7292,-7.736,-7.7395,-7.7462,-7.7485,-7.7537,-7.7513,-7.7538,-7.7544,-7.7551,-7.7558,-7.7386,-7.7546,-7.7545,-7.7545,-7.7545,-7.7544,0,-7.7057,-7.7082,-7.7137,-7.7195,-7.7242,-7.7222,-7.7265,-7.7305,-7.7366,-7.7402,-7.7448,-7.7519,-7.7575,-7.7595,-7.7649,-7.7687,-7.7679,-7.7701,-7.7699,-7.7703,-7.7575,-7.7556,-7.7707,-7.7707,-7.7707,-7.7707,-7.7706,-7.7706,-7.7143,-7.7229,-7.7237,-7.7337,-7.736,-7.7429,-7.7455,-7.749,-7.7519,-7.76,-7.7647,-7.7661,-7.769,-7.7747,-7.7797,-7.7801,-7.7822,-7.7848,-7.7848,-7.7728,-7.7712,-7.7697,-7.7678,-7.7852,-7.7852,-7.7972,-7.7973,-7.7974]}]]